Location: 3 Angels Observatory
(30.5437°N, 88.5068°W)
Time: 16:30:21
(UTC-05:00)

Daily predictions for brighter satellites

Satellite Brightness Start Highest point End
(mag) Time Altitude Azimuth Time Altitude Azimuth Time Altitude Azimuth
Cosmos 405 Rocket 3.3 19:51:03 10° N 19:54:37 37° E 19:58:15 10° SSE
OAO 3 Rocket 3.3 19:50:37 10° WNW 19:55:23 75° SSW 20:00:04 10° ESE
Lacrosse 5 3.7 20:00:38 10° ESE 20:01:11 10° ESE 20:01:42 10° ESE
ERBS 2.3 19:59:01 10° SW 20:02:29 83° SE 20:05:58 10° NE
GOES 2 Rocket 3.6 19:57:54 10° W 20:03:45 63° S 20:08:20 10° ESE
Cosmos 2082 3.8 19:58:50 10° NNW 20:04:34 85° WSW 20:10:16 10° SSE
Envisat 4.1 20:02:38 10° SE 20:06:43 25° ENE 20:10:49 10° NNE
Resurs 1-3 4.4 20:03:02 10° SE 20:06:55 32° ENE 20:10:49 10° N
Cosmos 1908 Rocket 4.3 20:03:49 10° SSW 20:08:08 57° W 20:12:26 10° N
ISS -1.3 20:06:48 10° W 20:09:10 19° SW 20:11:32 10° S
Cosmos 2227 Rocket 2.8 20:04:57 10° NNW 20:10:30 59° WSW 20:16:03 10° S
Cosmos 1980 Rocket 2.2 20:06:15 10° SSW 20:11:52 86° ESE 20:17:29 10° NNE
Delta R/B 2.7 20:10:02 10° WSW 20:12:18 29° S 20:13:08 16° SE
Cosmos 1092 Rocket 4.2 20:06:13 10° S 20:12:20 77° W 20:18:30 10° N
Cosmos 2056 Rocket 4.1 20:07:23 10° SSW 20:12:26 62° WNW 20:17:33 10° N
CZ-2D R/B 3.5 20:10:21 10° SSE 20:14:04 48° ENE 20:17:48 10° N
Atlas Centaur 2 2.9 20:06:15 10° WSW 20:14:36 82° S 20:21:38 10° E
Cosmos 1633 2.6 20:17:32 10° S 20:21:02 54° E 20:24:34 10° NNE
USA 267 3.5 20:14:55 10° SE 20:21:27 74° SW 20:28:01 10° NW
H-2A ROCKET BODY 2.9 20:19:48 10° SW 20:21:28 16° S 20:24:07 10° SE
Delta 2 Rocket 4.4 20:19:34 10° SSW 20:23:03 27° SE 20:25:48 15° E
CZ-3A R/B 2.5 20:18:30 10° W 20:23:59 26° SSW 20:25:43 14° SSE
Cosmos 1697 Rocket 4.4 20:23:15 10° SW 20:28:22 36° WNW 20:33:32 10° N
Resurs 01 Rocket 1.6 20:28:29 10° SSE 20:32:55 76° ENE 20:37:22 10° N
H-2A R/B 4.1 20:29:41 10° S 20:33:18 39° W 20:36:54 10° NNW
Cosmos 1553 Rocket 4.5 20:29:13 10° NNE 20:34:54 38° E 20:39:15 16° SE
Cosmos 1452 Rocket 3.4 20:31:08 10° SSW 20:36:24 82° ESE 20:41:42 10° NNE
Meteosat 1 Rocket2 4.4 20:32:06 10° SW 20:37:07 41° SSE 20:42:32 17° E
SEDSat Delta rocket 4.0 20:31:02 10° W 20:37:51 76° SSW 20:42:24 21° ESE
Cosmos 839 Rocket 4.1 20:31:45 10° SSW 20:38:19 84° WNW 20:44:29 10° NNE
Cosmos 1420 Rocket 3.9 20:36:36 10° S 20:41:41 60° ESE 20:46:46 10° NNE
Meteor 1-11 Rocket 4.1 20:36:07 10° SSE 20:41:43 46° E 20:47:13 10° NNE
GPS 2-05 Rocket1 3.9 20:39:06 10° W 20:42:16 38° N 20:44:35 16° NE
ATLAS 2AS CENTAUR R/B 3.4 20:36:07 10° S 20:42:45 37° ESE 20:49:49 10° NE
Skynet4D Del rocket 4.0 20:42:02 10° WSW 20:48:48 60° S 20:52:19 25° ESE
Cosmos 1300 Rocket 4.2 20:48:19 29° ESE 20:49:18 32° E 20:53:08 10° NNE
Cosmos 407 Rocket 3.5 20:44:49 10° NNW 20:50:11 90° W 20:54:34 15° SSE
Cosmos 1812 4.1 20:46:40 10° NNW 20:50:18 39° W 20:53:54 10° SSW
Cosmos 2151 Rocket 3.4 20:46:55 10° S 20:51:16 71° E 20:55:38 10° N
Cosmos 1190 Rocket 4.1 20:46:41 10° NNW 20:51:57 77° WSW 20:56:42 13° S
Palapa 6 Rocket 4.4 20:46:56 10° WSW 20:52:18 41° S 20:55:23 26° SE
Cosmos 1602 3.6 20:50:02 10° S 20:53:53 90° SE 20:57:44 10° N
NOSS 2-3 (E) 3.7 20:49:39 10° SSW 20:54:05 56° ESE 20:58:56 10° NE
Intelsat 5-1 Rocket 4.5 20:29:58 10° WSW 20:54:34 56° S 20:59:56 25° ESE
CZ-4C R/B 3.4 20:51:00 10° NW 20:58:26 62° WSW 21:06:01 11° SSE
SJ-11-01 4.3 20:56:28 29° SE 20:58:38 58° ENE 21:03:13 10° N
Cosmos 1939 Rocket 2.8 20:58:27 36° SE 20:59:55 64° ENE 21:03:51 10° N
Cosmos 2297 Rocket 4.3 20:55:55 10° NW 21:00:24 25° WSW 21:04:52 10° SSW
Cosmos 1975 Rocket 4.1 20:56:46 10° NNW 21:01:02 46° W 21:05:16 10° SSW
DELTA 2 R/B (1) 4.4 20:58:32 10° NW 21:03:52 43° NNE 21:06:45 25° ENE
Cosmos 1655 Rocket 4.4 20:58:31 10° SSW 21:04:41 65° W 21:10:58 10° N
USA 186 3.4 21:04:59 14° SSW 21:07:21 35° W 21:10:28 10° NNW
Cosmos 676 Rocket 3.9 21:02:43 10° NNW 21:08:03 86° ENE 21:10:44 30° SSE
Helios 1B rocket 2.2 21:07:14 10° NNE 21:11:19 73° E 21:12:45 39° S
Cosmos 1536 2.8 21:11:13 58° ESE 21:11:32 61° E 21:15:34 10° NNE
Milstar 3 4.4 20:53:22 10° W 21:13:09 60° SSW 21:19:28 29° SE
STPSAT 2 (USA 217) 4.5 21:08:50 10° NNW 21:13:21 75° ENE 21:14:17 54° SE
Okean 1 4.4 21:09:47 10° NNW 21:13:33 43° W 21:16:29 15° SSW
Cosmos 44 Rocket 3.2 21:13:16 10° NNW 21:18:01 68° ENE 21:18:48 56° ESE
Cosmos 1023 Rocket 4.4 21:12:56 10° NNW 21:18:12 73° ENE 21:19:38 48° SE
Cosmos 2322 Rocket 2.3 21:13:33 10° SSW 21:19:14 76° WNW 21:24:57 10° NNE
Lacrosse 5 rocket 2.2 21:17:12 10° NNW 21:20:14 35° NNE 21:20:14 35° NNE
ARGOS 4.2 21:23:10 29° ENE 21:23:10 29° ENE 21:27:20 10° NNE
Meteor 1-19 Rocket 4.2 21:17:06 10° N 21:22:59 89° ENE 21:25:36 35° S
SWAS 4.4 21:20:02 10° NNW 21:24:18 78° WSW 21:24:49 66° S
Cosmos 1536 Rocket 3.4 21:20:58 10° N 21:25:18 88° E 21:25:43 73° S
Spot 1 4.4 21:24:34 56° SE 21:25:29 67° ENE 21:30:36 10° N
NOSS 2-3 (C) 4.1 21:23:10 10° SW 21:27:41 66° WNW 21:32:42 10° NNE
Cosmos 2263 Rocket 3.1 21:23:00 10° N 21:28:02 32° ENE 21:28:02 32° ENE
Cosmos 1140 Rocket 3.4 21:22:54 10° NNW 21:28:09 89° WSW 21:29:22 55° SSE
SL-16 R/B 2.6 21:22:56 10° SSW 21:28:31 62° WNW 21:34:08 10° NNE
H-2A R/B 3.7 21:31:59 19° NE 21:31:59 19° NE 21:34:23 10° NNE
Cosmos 1954 Rocket 4.2 21:25:49 10° NNW 21:31:06 69° WSW 21:32:50 42° S
Meteor 1-29 4.3 21:32:00 10° N 21:34:11 35° N 21:34:11 35° N
SPOT 5 4.3 21:37:08 25° NE 21:37:08 25° NE 21:39:50 10° NNE
Cosmos 614 Rocket 3.8 21:33:17 10° NNW 21:38:25 84° WSW 21:38:58 71° S
Helios 1A 3.2 21:38:36 67° WSW 21:38:39 67° WSW 21:42:53 10° NNW
Cosmos 1741 Rocket 4.1 21:38:14 10° N 21:43:02 61° NE 21:43:02 61° NE
Lacrosse 5 1.8 21:38:25 10° SW 21:43:29 81° NW 21:48:34 10° NE
ERS-1 Rocket 3.0 21:46:07 66° NE 21:46:07 66° NE 21:50:40 10° N
Cosmos 883 Rocket 4.3 21:44:17 10° N 21:50:25 82° E 21:50:58 74° SE
Meteor 1-5 Rocket 4.3 21:50:03 46° SW 21:51:34 67° W 21:56:51 10° N
Cosmos 2360 Rocket 2.4 21:55:38 61° NNE 21:55:38 61° NNE 22:00:15 10° NNE
MetOp-B 4.3 22:01:40 68° N 22:01:40 68° N 22:06:19 10° NNW
Atlas Centaur 2 2.4 21:56:40 10° W 22:04:21 87° S 22:04:26 86° SSE
Meteor 2-4 Rocket 4.3 22:00:36 10° NNW 22:05:59 51° W 22:06:47 48° WSW
ATLAS 3B R/B 3.8 22:04:38 10° N 22:09:41 27° NE 22:09:41 27° NE
Cosmos 2315 Rocket 4.1 22:14:43 10° N 22:20:28 72° NW 22:20:28 72° NW
ATLAS 2AS CENTAUR R/B 4.0 22:26:29 10° WSW 22:33:35 42° NW 22:41:09 10° NNE
Terra 4.3 22:41:14 16° N 22:41:14 16° N 22:42:12 10° N
H-2A R/B 4.3 23:12:37 20° NW 23:12:37 20° NW 23:14:22 10° NNW
Cosmos 2263 Rocket 4.3 23:07:09 10° NW 23:09:45 21° WNW 23:09:45 21° WNW
